Location: Düngen
(52.0952°N, 10.0219°E)
Time: 15:05:44
(UTC+00:00)

Cosmos 1626 Rocket - Pass Details

Date: 11 March 2026
Orbit: 596 x 624 km, 82.5° (Epoch: 14 April)

Event Time Altitude Azimuth Distance (km) Brightness Sun altitude
Rises 17:59:11 0° 198° (SSW) 2,893 7.2 -7.3°
Reaches altitude 10° 18:01:25 10° 201° (SSW) 1,993 6.4 -7.6°
Maximum altitude 18:05:48 63° 283° (WNW) 702 4.2 -8.3°
Drops below altitude 10° 18:10:14 10° 5° (N) 2,010 6.2 -8.9°
Sets 18:12:30 0° 9° (N) 2,920 7.0 -9.3°
